Change the Weather History Date:

Monday, February 3, 2014

  Actual Average Record
Temperature  
Mean Temperature 12 °F -  
Max Temperature 25 °F 36 °F 52 °F (1962)
Min Temperature -2 °F 9 °F -8 °F (1969)
Degree Days  
Heating Degree Days 54    
Moisture  
Dew Point 13 °F    
Average Humidity 89    
Maximum Humidity 96    
Minimum Humidity 77    
Precipitation  
Precipitation 0.01 in - - ()
Sea Level Pressure  
Sea Level Pressure 29.84 in    
Wind  
Wind Speed 5 mph (SSW)    
Max Wind Speed 12 mph    
Max Gust Speed -    
Visibility 6 miles    
Events Fog , Snow    
Averages and records for this station are not official NWS values.
T = Trace of Precipitation, MM = Missing Value Source: NWS Daily Summary

Daily Weather History Graph

Daily Weather History Graph

Search for Another Location

Airport or City:

Trip Planner

Search our weather history database for the weather conditions in past years. The results will help you decide how hot, cold, wet, or windy it might be!

Date:

Astronomy

Feb. 03, 2014 Rise Set
Actual Time 7:30 AM MST 5:54 PM MST
Civil Twilight 7:03 AM MST 6:22 PM MST
Nautical Twilight 6:31 AM MST 6:53 PM MST
Astronomical Twilight 6:01 AM MST 7:24 PM MST
Moon 9:40 AM MST (2/3) 10:42 PM MST (2/3)
Length of Visible Light 11h 19m
Length of Day
10h 24m
Waxing Crescent, 20% of the Moon is Illuminated
Feb 3
Waxing Crescent
Feb 6
First Quarter
Feb 14
Full
Feb 22
Last Quarter
Mar 1
New

Hourly Weather History & Observations

Time (MST) Temp. Windchill Dew Point Humidity Pressure Visibility Wind Dir Wind Speed Gust Speed Precip Events Conditions
12:02 AM 19.9 °F 12.1 °F 18.0 °F 92% 29.88 in 4.0 mi WSW 5.8 mph - 0.00 in Snow Light Snow
12:11 AM 19.9 °F 13.4 °F 18.0 °F 92% 29.88 in 5.0 mi South 4.6 mph - 0.00 in Snow Light Snow
12:20 AM 19.9 °F 13.4 °F 18.0 °F 92% 29.88 in 4.0 mi SSE 4.6 mph - 0.01 in Snow Light Snow
12:36 AM 19.9 °F 11.1 °F 18.0 °F 92% 29.88 in 4.0 mi SE 6.9 mph - 0.01 in Snow Light Snow
12:53 AM 19.9 °F 9.3 °F 18.0 °F 92% 29.90 in 4.0 mi SE 9.2 mph - 0.01 in Snow Light Snow
1:27 AM 19.9 °F 11.1 °F 18.0 °F 92% 29.87 in 5.0 mi SSE 6.9 mph - 0.00 in Snow Light Snow
1:53 AM 19.0 °F 9.0 °F 18.0 °F 96% 29.88 in 6.0 mi SE 8.1 mph - 0.00 in   Overcast
2:19 AM 19.0 °F 11.1 °F 18.0 °F 96% 29.86 in 10.0 mi SE 5.8 mph - N/A   Overcast
2:53 AM 18.0 °F - 17.1 °F 96% 29.88 in 10.0 mi Calm Calm - N/A   Overcast
3:25 AM 18.0 °F 11.1 °F 17.1 °F 96% 29.84 in 10.0 mi SE 4.6 mph - N/A   Overcast
3:53 AM 16.0 °F 8.8 °F 15.1 °F 96% 29.87 in 10.0 mi North 4.6 mph - N/A   Overcast
4:01 AM 17.1 °F 10.0 °F 15.1 °F 92% 29.83 in 6.0 mi North 4.6 mph - N/A   Overcast
4:24 AM 17.1 °F 10.0 °F 16.0 °F 96% 29.83 in 1.8 mi North 4.6 mph - N/A   Overcast
4:38 AM 16.0 °F - 14.0 °F 92% 29.83 in 0.5 mi Calm Calm - N/A Fog Light Freezing Fog
4:53 AM 14.0 °F 5.1 °F 12.9 °F 95% 29.88 in 0.2 mi SSW 5.8 mph - N/A Fog Light Freezing Fog
5:34 AM 12.0 °F 5.9 °F 10.9 °F 95% 29.82 in 0.5 mi West 3.5 mph - N/A Fog Light Freezing Fog
5:53 AM 8.1 °F 1.4 °F 5.0 °F 87% 29.91 in 0.8 mi SW 3.5 mph - N/A   Overcast
6:01 AM 7.0 °F 0.1 °F 5.0 °F 92% 29.82 in 2.5 mi SW 3.5 mph - N/A   Overcast
6:08 AM 8.1 °F 1.4 °F 6.1 °F 92% 29.82 in 0.8 mi SW 3.5 mph - N/A   Overcast
6:33 AM 5.0 °F -4.1 °F 3.0 °F 92% 29.82 in 2.0 mi West 4.6 mph - N/A   Overcast
6:48 AM 5.0 °F -2.1 °F 1.4 °F 85% 29.82 in 10.0 mi SW 3.5 mph - N/A   Mostly Cloudy
6:53 AM 3.9 °F -3.4 °F 1.9 °F 91% 29.93 in 10.0 mi West 3.5 mph - N/A   Overcast
7:08 AM 5.0 °F -4.1 °F 3.0 °F 92% 29.82 in 10.0 mi SW 4.6 mph - N/A   Overcast
7:24 AM 5.0 °F -2.1 °F 3.0 °F 92% 29.81 in 10.0 mi WSW 3.5 mph - N/A   Mostly Cloudy
7:53 AM 5.0 °F -5.6 °F 1.9 °F 87% 29.93 in 10.0 mi West 5.8 mph - N/A   Partly Cloudy
8:53 AM 12.9 °F 3.8 °F 10.9 °F 92% 29.91 in 10.0 mi West 5.8 mph - N/A   Overcast
9:53 AM 12.9 °F 6.9 °F 12.0 °F 96% 29.91 in 10.0 mi SW 3.5 mph - N/A   Overcast
10:53 AM 21.9 °F 11.0 °F 17.1 °F 82% 29.84 in 10.0 mi SE 10.4 mph - N/A   Overcast
11:53 AM 21.0 °F 9.3 °F 16.0 °F 81% 29.83 in 10.0 mi SE 11.5 mph - N/A   Partly Cloudy
12:53 PM 23.0 °F 13.9 °F 17.1 °F 78% 29.78 in 9.0 mi ESE 8.1 mph - 0.00 in Snow Light Snow
1:42 PM 24.1 °F 15.2 °F 19.9 °F 84% 29.76 in 2.0 mi SE 8.1 mph - 0.00 in Snow Light Snow
1:53 PM 24.1 °F 16.0 °F 19.9 °F 84% 29.76 in 3.0 mi SE 6.9 mph - 0.00 in Snow Light Snow
2:53 PM 25.0 °F 17.1 °F 19.9 °F 81% 29.75 in 9.0 mi SE 6.9 mph - 0.00 in   Overcast
3:08 PM 25.0 °F 19.3 °F 19.9 °F 81% 29.75 in 1.8 mi SSE 4.6 mph - 0.00 in Snow Light Snow
3:19 PM 24.1 °F 18.2 °F 19.0 °F 81% 29.75 in 3.0 mi SSW 4.6 mph - 0.00 in Snow Light Snow
3:37 PM 24.1 °F - 19.0 °F 81% 29.75 in 1.8 mi Calm Calm - 0.00 in Snow Light Snow
3:44 PM 24.1 °F - 19.0 °F 81% 29.75 in 2.0 mi Calm Calm - 0.00 in Snow Light Snow
3:49 PM 23.0 °F - 19.4 °F 86% 29.75 in 4.0 mi Calm Calm - 0.00 in Snow Light Snow
3:53 PM 23.0 °F - 19.9 °F 88% 29.77 in 6.0 mi Calm Calm - 0.00 in Snow Light Snow
4:53 PM 24.1 °F 13.7 °F 18.0 °F 77% 29.78 in 10.0 mi West 10.4 mph - 0.00 in   Overcast
5:20 PM 23.0 °F 17.0 °F 18.0 °F 81% 29.75 in 2.0 mi NW 4.6 mph - 0.00 in Snow Light Snow
5:31 PM 21.9 °F 17.2 °F 18.0 °F 85% 29.75 in 9.0 mi West 3.5 mph - 0.00 in   Overcast
5:53 PM 19.9 °F 13.4 °F 17.1 °F 89% 29.84 in 10.0 mi WSW 4.6 mph - 0.00 in   Overcast
6:53 PM 5.0 °F -4.1 °F 1.9 °F 87% 29.95 in 10.0 mi West 4.6 mph - N/A   Clear
7:53 PM -0.0 °F -9.9 °F -2.9 °F 88% 29.99 in 10.0 mi West 4.6 mph - N/A   Clear
8:53 PM -2.0 °F -12.2 °F -5.1 °F 87% 29.96 in 10.0 mi SW 4.6 mph - N/A   Clear
9:53 PM 1.0 °F -10.3 °F -0.0 °F 95% 29.95 in 10.0 mi WSW 5.8 mph - N/A   Mostly Cloudy
10:53 PM 7.0 °F - 5.0 °F 92% 29.85 in 10.0 mi Calm Calm - N/A   Overcast
11:53 PM 12.0 °F - 10.0 °F 92% 29.83 in 10.0 mi Calm Calm - N/A   Overcast